Theta_e
302 302 301 302 302 301 302 302 302 301 302 302 301 303 304 305 302 302 311 312 309 310 313 314 315 316 316 316 317 319 319 320 321 323 322 322 324 325 325 325 326 326 326 328 329 328 330 331 335 339 341 341 344 345 346 349 354 352 355 355 356 354 354 353 353 354 357 359 358 355 354 357 359 355 352 350 351 351 354 351 348 347 345 343 350 351 353
301 301 301 302 301 300 301 300 301 301 302 302 303 303 304 305 308 311 311 313 311 313 314 315 316 318 318 318 319 319 319 319 321 320 320 320 322 323 323 325 325 327 327 328 328 329 330 330 333 336 336 339 342 342 344 345 346 355 356 356 355 354 352 353 354 356 356 356 354 357 358 357 354 355 356 354 346 349 349 350 352 352 351 348 346 350 352
298 300 301 301 300 300 298 300 301 300 301 301 303 304 305 307 310 312 312 310 309 314 317 317 319 319 319 318 318 318 319 319 319 320 320 321 321 322 323 324 324 325 327 328 328 329 330 330 330 334 335 337 341 339 343 344 342 345 350 355 354 353 354 354 356 358 359 357 353 352 353 356 357 353 350 349 351 357 355 353 354 362 353 350 347 345 351
296 300 299 300 300 299 298 299 299 299 299 298 301 302 305 305 308 310 310 307 307 313 317 317 317 317 317 316 316 317 318 318 319 319 319 321 321 322 322 323 324 324 325 326 327 327 327 329 332 333 336 337 338 338 339 340 340 343 343 348 351 352 353 354 354 355 356 356 357 356 354 354 354 355 356 352 351 349 356 356 363 357 355 354 354 349 345
294 299 300 299 299 297 294 296 298 300 301 301 302 305 307 307 313 308 305 307 313 314 316 314 314 316 316 315 315 316 317 318 317 318 318 319 321 321 323 323 323 323 323 325 327 327 327 327 329 330 330 332 335 337 339 340 341 341 341 342 343 345 348 350 352 354 355 354 355 353 351 353 356 356 355 353 355 354 351 349 353 356 360 362 358 356 352
295 298 299 299 295 288 290 301 303 302 300 300 299 302 306 309 313 310 313 313 315 314 314 313 313 314 314 316 318 319 318 318 318 317 318 318 319 320 321 322 323 323 324 325 326 328 330 328 328 330 331 330 333 337 339 342 340 341 340 340 341 341 343 345 346 347 347 349 352 354 355 357 356 356 355 355 356 356 355 354 352 351 355 356 359 365 360
294 298 298 293 288 290 302 305 306 305 304 303 302 307 308 311 312 315 313 313 313 314 315 315 316 316 316 318 317 317 318 319 317 317 318 317 318 319 320 321 322 322 322 323 326 327 326 327 328 330 329 329 332 333 335 334 337 339 337 337 339 339 342 345 346 346 345 347 349 352 354 355 355 355 353 353 355 356 356 355 351 353 357 355 354 356 358
298 295 294 286 289 301 303 305 307 309 308 307 307 306 309 311 311 314 312 313 314 315 315 316 317 317 317 317 318 317 317 317 317 316 316 316 317 317 318 320 321 322 320 322 323 325 328 328 325 328 329 329 329 329 330 330 334 335 335 335 335 337 338 339 342 344 345 345 347 349 350 351 351 353 352 352 352 356 356 358 356 357 360 358 357 356 359
292 294 294 293 301 299 301 301 304 305 304 305 305 299 305 312 313 314 313 313 314 315 315 316 317 317 316 314 314 316 316 316 317 317 316 316 317 317 319 319 320 322 323 323 325 328 327 326 325 326 329 330 330 329 328 327 332 332 332 332 334 337 336 335 337 340 342 345 344 344 348 349 350 351 351 350 354 356 354 356 355 355 356 358 360 358 357
298 293 292 293 293 289 296 304 307 307 306 306 309 307 302 311 313 315 313 312 312 315 314 315 316 316 312 308 310 315 315 315 315 316 317 317 317 317 317 320 320 320 322 322 323 322 325 328 325 328 328 330 330 330 329 326 329 331 330 330 333 334 333 334 336 338 342 343 343 342 345 346 348 352 354 353 352 356 355 354 356 355 357 356 359 358 355
296 293 290 290 289 293 302 304 306 307 308 309 309 303 299 308 311 314 314 312 312 312 312 312 313 312 306 307 310 314 316 315 315 315 315 316 316 317 317 319 317 318 321 322 322 322 322 322 326 330 334 332 328 329 330 328 329 330 330 331 331 331 331 333 335 338 341 345 343 341 344 347 349 348 352 353 355 356 354 354 355 357 357 356 356 359 358
296 294 291 290 295 296 302 305 306 309 310 309 304 292 293 307 310 312 313 311 309 310 312 312 310 308 305 307 310 315 316 315 316 316 315 316 316 316 317 318 317 321 323 322 321 320 321 323 324 326 327 328 329 328 330 330 329 329 331 332 332 334 334 334 335 339 339 342 343 342 344 345 347 349 349 346 345 348 350 350 351 353 355 354 356 357 359
295 296 294 295 298 304 306 306 307 307 308 303 293 287 299 309 311 311 312 310 309 311 310 310 307 311 312 312 313 315 314 314 316 316 317 317 317 317 317 317 321 320 320 320 319 319 323 326 324 324 324 324 325 327 330 330 331 331 334 336 336 336 335 333 332 332 334 336 337 338 345 346 348 350 348 346 344 342 341 347 350 352 352 354 355 356 357
294 295 292 293 299 306 308 307 307 307 302 291 291 305 312 311 310 311 310 310 311 311 311 309 311 312 314 314 314 314 314 314 315 315 316 317 317 318 319 320 320 319 319 320 320 321 322 323 325 325 326 326 326 327 327 328 330 333 335 336 336 335 334 333 333 332 332 337 337 335 342 348 349 348 350 351 347 343 343 343 344 346 348 350 350 352 356
296 296 293 291 287 303 309 307 305 305 297 303 309 311 311 311 310 309 310 311 310 311 310 312 313 312 311 312 312 313 314 313 313 314 316 316 316 316 317 318 319 318 318 318 318 319 321 322 324 325 326 326 326 326 326 328 330 333 333 334 336 334 334 333 333 332 335 333 333 333 337 344 347 346 349 348 348 349 348 348 348 347 346 348 351 352 354
293 292 291 290 302 306 310 307 301 306 310 312 313 311 308 311 311 310 310 311 311 312 312 311 311 311 311 311 312 313 313 312 313 315 315 316 316 316 316 317 317 317 317 317 317 319 320 322 323 324 325 324 326 325 326 330 330 332 332 332 334 333 333 334 332 331 330 331 333 336 339 344 343 342 345 348 349 349 348 347 345 344 345 348 349 350 350
298 297 299 303 308 309 310 311 310 312 314 315 314 312 310 309 309 312 310 311 312 313 313 311 310 308 308 310 311 310 311 312 313 313 313 314 314 315 315 315 317 316 315 316 316 318 319 321 322 324 324 323 323 324 327 330 330 329 331 331 332 331 331 330 331 330 332 335 337 339 339 340 340 342 344 346 347 349 351 349 346 346 348 349 348 350 351
307 308 309 310 309 310 309 312 313 312 313 313 313 312 310 311 311 312 311 312 313 313 313 309 309 308 310 310 309 310 311 311 312 313 313 314 314 314 315 315 315 315 315 316 316 316 318 320 321 322 322 322 322 324 327 329 330 329 330 332 331 330 329 330 328 329 328 329 330 335 334 338 341 345 342 341 343 348 348 348 348 347 345 342 342 343 347
300 295 306 307 307 308 310 310 312 312 312 312 312 311 312 312 312 312 313 313 314 314 313 311 310 309 309 308 310 311 311 311 311 312 312 313 313 313 313 314 315 315 315 314 315 315 315 318 319 320 321 322 324 326 327 327 328 330 330 330 330 331 330 327 328 328 329 328 329 331 333 333 333 334 335 339 341 343 344 341 341 341 339 338 339 340 340
299 300 306 309 310 310 311 309 308 308 310 310 312 311 314 314 314 313 313 313 312 313 311 310 308 309 311 310 310 310 310 310 311 311 312 312 312 313 314 314 315 314 314 314 314 315 316 317 318 319 319 320 322 323 324 324 326 328 328 328 326 327 326 326 327 327 327 330 331 328 328 328 328 331 333 333 335 338 336 336 336 337 337 338 337 335 336
303 306 307 308 309 309 309 309 309 310 310 310 311 313 314 313 312 312 312 311 311 311 311 313 311 310 310 310 311 309 309 310 311 311 311 312 312 312 313 314 315 314 314 314 315 315 316 317 318 318 319 320 322 324 324 325 327 327 327 327 328 326 326 327 327 330 329 328 327 327 328 331 332 333 332 331 334 334 335 338 338 335 334 335 336 335 334
298 299 302 307 300 300 305 308 309 310 312 311 311 311 311 310 310 311 310 309 311 311 312 312 311 309 310 310 310 309 309 310 310 310 311 311 312 312 313 314 315 315 315 315 314 315 315 317 317 318 318 320 321 322 324 325 326 326 327 326 326 325 325 325 325 326 326 325 327 328 327 327 328 330 332 322 327 333 333 333 325 317 320 334 336 336 333
298 304 309 311 310 309 310 310 311 311 311 311 310 309 309 310 310 311 310 309 309 309 310 311 311 310 309 309 309 309 309 310 311 311 311 310 311 312 313 313 313 314 314 315 315 315 316 317 318 320 321 321 321 322 325 325 324 326 326 326 325 323 324 323 325 325 324 325 325 328 328 328 330 329 329 332 315 310 314 321 314 307 304 306 308 310 323
307 309 309 311 310 307 309 310 311 312 313 310 310 310 311 310 310 310 310 310 309 309 309 310 310 310 309 309 309 309 309 310 310 310 310 312 312 312 313 313 314 313 314 314 314 314 315 316 316 318 319 321 322 321 324 325 326 326 326 325 323 322 323 324 328 326 324 325 326 326 326 327 328 329 327 327 330 320 311 308 307 304 303 303 303 303 304
306 311 311 311 312 311 312 312 312 313 313 313 310 310 310 310 310 311 310 308 309 308 306 307 308 310 309 309 309 309 308 309 309 310 311 312 311 312 312 313 313 313 313 313 314 315 315 315 315 317 318 321 324 325 324 323 323 324 325 325 324 325 325 326 325 325 322 324 325 324 324 325 326 326 324 324 323 325 330 313 305 304 304 303 302 301 302
311 312 313 312 313 312 313 313 311 312 312 312 311 311 312 312 311 310 310 309 310 310 309 308 309 310 309 309 308 308 309 308 309 310 309 310 311 311 312 312 313 314 313 313 314 314 314 314 315 315 317 320 321 322 324 324 324 324 325 325 325 325 324 324 324 324 324 325 325 325 326 326 325 323 324 325 324 325 324 325 328 322 308 301 300 301 299
312 312 312 310 309 309 310 310 310 312 312 311 311 311 311 314 313 312 311 311 310 310 309 309 309 310 309 308 309 308 307 308 309 309 310 310 310 311 312 312 313 313 313 312 313 314 315 314 313 313 314 318 318 319 320 321 322 323 323 323 323 324 325 324 324 323 323 323 322 323 324 324 323 322 322 324 323 322 322 322 324 327 328 334 320 303 321
311 312 312 308 306 306 310 313 313 313 313 312 311 310 311 311 310 310 309 309 308 309 310 309 309 308 308 308 308 308 307 308 308 309 310 311 311 312 312 313 313 313 312 312 312 314 314 313 313 312 313 315 317 317 318 318 319 320 321 321 321 321 321 321 321 321 321 322 322 321 321 322 322 320 321 321 320 321 321 324 326 326 327 330 332 322 312
311 310 312 312 312 313 314 315 313 311 310 312 312 312 311 309 308 308 308 308 308 309 308 308 309 309 308 308 308 307 307 307 308 308 309 311 311 311 311 312 312 311 312 312 312 312 312 312 312 311 312 314 314 315 315 316 316 317 318 319 319 319 319 320 321 320 320 320 321 321 320 318 318 320 320 321 321 322 323 324 326 327 327 329 330 331 329
310 312 310 311 312 312 311 309 309 310 309 310 310 310 310 309 307 307 308 308 308 307 308 309 308 308 308 308 307 306 306 307 307 308 309 309 309 311 311 311 311 310 310 310 310 311 311 311 311 310 311 313 313 313 314 314 314 315 316 317 317 318 318 318 319 319 319 319 318 319 319 318 321 321 320 320 321 321 322 323 324 325 325 327 328 326 326
311 312 312 312 312 312 310 310 309 310 310 310 309 309 309 309 308 307 307 308 308 308 308 308 308 308 307 307 308 308 308 308 308 309 309 310 310 310 310 310 308 307 307 308 310 310 310 310 311 311 312 312 312 312 312 312 312 313 313 314 315 316 317 318 317 316 316 317 317 317 317 318 318 318 318 319 319 320 321 322 323 323 324 325 324 324 325
311 310 311 311 311 310 310 310 309 308 309 309 308 308 308 307 307 307 308 307 308 307 308 308 307 307 308 309 309 309 309 309 309 310 310 309 309 310 310 310 309 309 309 310 310 310 310 311 310 311 312 312 312 312 311 311 311 311 311 312 312 312 313 314 313 313 313 315 315 315 316 316 316 317 318 318 318 319 319 319 319 320 321 322 322 324 326
307 307 307 307 308 308 308 309 309 309 309 308 308 308 309 309 309 309 308 309 308 309 309 309 308 308 309 309 309 309 308 309 309 308 308 309 309 309 310 310 309 309 309 310 310 310 309 309 310 311 311 311 312 311 310 310 310 310 310 310 310 310 312 312 312 311 313 313 313 314 316 316 316 316 316 317 317 319 319 318 319 319 319 320 321 323 320
306 305 305 308 310 308 308 308 310 309 309 310 311 309 309 309 309 309 309 310 308 308 308 308 309 309 309 309 309 308 308 307 306 307 307 308 308 309 310 309 309 309 309 310 310 309 310 310 310 310 310 310 310 310 309 309 309 309 309 309 309 308 309 310 310 311 311 312 312 313 314 314 314 315 315 315 316 317 318 318 317 317 318 318 319 321 313
310 309 309 307 309 310 311 311 311 310 309 309 309 310 311 311 309 309 311 310 308 309 310 310 310 309 309 309 307 307 307 306 307 307 307 307 308 308 309 308 308 308 308 309 310 309 309 309 309 309 309 308 309 309 308 308 308 308 309 309 309 309 309 310 309 309 309 310 311 311 312 312 313 315 315 315 315 316 316 316 316 316 316 316 318 320 320
310 309 309 308 308 309 308 308 310 310 309 309 311 310 310 309 308 309 309 309 309 309 309 309 309 309 309 308 307 306 307 306 307 307 307 307 307 308 308 307 307 306 306 307 308 309 309 308 309 309 307 307 307 307 308 308 308 307 308 307 307 308 308 308 308 308 309 308 309 310 311 312 313 313 313 314 314 314 315 315 315 316 316 316 316 316 317
310 308 308 308 308 308 309 310 310 310 310 310 309 311 310 310 308 310 310 309 309 309 310 309 308 307 307 308 308 308 308 307 306 306 307 307 307 306 305 305 305 305 305 304 307 308 308 308 308 308 306 306 306 307 308 309 307 306 307 306 305 305 305 305 306 306 307 308 308 308 310 310 309 310 312 312 312 313 313 313 314 314 315 315 315 314 314
308 308 308 308 308 308 308 309 309 310 310 309 310 310 310 310 311 310 310 309 309 309 309 308 308 308 309 309 308 307 307 307 306 305 306 306 306 304 304 303 303 304 303 304 307 307 307 308 308 307 305 305 306 306 307 308 309 306 304 304 304 304 304 304 305 306 306 306 308 307 307 307 307 308 309 310 311 311 312 312 312 312 313 313 313 313 313
307 308 308 308 308 308 309 309 308 309 309 309 309 311 312 311 311 310 309 310 309 310 309 309 308 307 307 307 306 306 306 306 305 304 304 304 304 304 303 304 305 306 306 307 307 306 307 307 306 304 305 305 305 304 305 306 307 303 303 303 303 303 304 304 304 305 305 306 305 305 306 307 307 307 308 308 309 310 310 311 311 312 311 312 311 311 311
304 305 306 306 306 307 307 307 308 307 308 309 310 309 312 311 310 310 309 309 311 311 309 309 308 306 307 306 305 305 306 306 306 305 304 304 304 303 303 304 306 306 307 306 306 305 305 305 304 304 304 303 303 303 304 305 305 303 302 301 302 303 303 304 304 304 304 304 304 306 305 306 306 307 308 308 308 308 308 308 309 309 309 310 310 310 310
303 304 305 305 305 305 306 306 306 307 308 308 309 310 311 311 312 310 309 309 310 310 310 309 308 307 307 306 306 306 306 306 305 305 305 304 302 302 301 301 305 306 305 305 305 305 305 304 304 304 303 303 303 304 303 304 302 301 301 301 302 302 303 303 303 303 303 303 303 303 303 304 304 305 305 305 306 306 306 306 307 307 307 307 307 307 307
303 304 304 304 304 304 306 307 307 306 307 308 309 310 312 314 312 310 309 309 309 310 310 309 309 308 307 307 307 306 305 305 305 305 304 303 302 301 300 302 305 305 304 305 305 303 303 304 304 304 303 303 303 303 303 302 301 300 301 301 301 302 302 302 303 303 303 303 302 302 303 303 303 303 304 304 304 304 304 305 305 306 306 306 306 306 305
302 302 302 302 303 305 304 304 306 307 307 308 309 309 312 312 312 310 308 308 309 309 309 309 309 309 308 307 306 305 304 305 305 305 304 304 305 304 303 304 306 305 303 305 304 303 302 302 302 302 302 302 302 302 302 300 300 300 300 300 301 301 301 301 301 301 301 301 301 301 301 301 302 302 302 302 302 303 303 303 303 304 305 305 304 304 304
301 301 302 303 302 303 304 304 305 306 305 307 308 309 310 310 310 309 308 307 307 310 309 308 307 307 307 306 305 304 304 304 303 303 302 303 304 305 306 305 305 304 304 303 303 302 302 302 302 301 301 302 301 301 301 300 300 300 300 300 300 300 300 299 299 300 300 300 300 300 300 301 301 301 301 301 301 302 302 303 303 303 303 303 303 303 303
301 300 301 302 302 302 302 302 302 303 306 308 307 308 309 309 310 308 307 307 308 306 308 307 307 306 306 305 305 305 306 305 305 304 301 300 300 301 304 304 304 304 304 302 302 302 302 302 302 302 301 301 301 301 300 300 299 299 299 299 299 299 299 299 298 298 299 299 300 300 300 300 300 300 300 301 302 301 301 301 301 301 301 301 301 301 301
301 301 302 302 301 301 302 303 304 303 303 306 307 307 308 309 309 307 307 307 307 307 307 309 308 307 307 306 307 306 305 305 305 305 306 304 301 304 305 304 304 304 303 302 302 302 302 302 301 300 300 300 301 300 299 299 299 298 298 298 298 298 298 298 298 297 297 298 298 298 299 299 299 300 300 300 300 300 301 301 301 300 300 300 301 301 301
302 302 301 302 302 303 303 304 304 304 303 302 303 306 307 308 308 308 308 308 308 308 309 307 307 307 307 307 306 305 303 303 304 305 306 305 306 305 305 304 303 303 302 302 302 302 302 301 301 300 300 300 300 299 298 298 297 297 297 297 297 297 297 297 297 297 297 297 298 299 299 299 299 299 300 299 299 299 299 299 298 298 299 300 300 300 299
302 302 303 303 302 303 303 304 303 302 301 300 302 306 306 307 308 309 310 309 308 308 308 308 307 307 307 307 307 307 306 305 301 302 305 304 305 305 304 303 304 302 302 303 301 302 302 300 300 299 299 299 299 298 298 297 297 297 297 297 297 296 296 296 296 296 296 297 297 296 296 297 297 298 298 298 298 299 299 298 297 297 297 298 297 297 297
301 301 302 303 304 303 301 301 301 302 303 304 303 304 307 307 307 308 307 307 306 307 307 306 306 306 306 307 307 307 307 307 306 302 305 305 305 304 304 304 304 303 302 302 302 301 302 300 299 299 299 299 298 298 297 297 297 297 297 296 296 296 296 296 296 296 296 296 295 295 296 296 296 296 297 297 297 298 298 297 297 296 296 296 296 296 296
302 302 302 301 301 302 302 301 300 303 306 305 305 306 308 308 305 305 306 306 306 308 306 305 305 306 306 306 307 306 307 306 307 306 306 306 305 306 304 304 303 302 302 302 302 301 301 301 301 300 299 299 298 298 298 297 297 296 296 297 296 296 296 296 296 296 296 296 295 295 295 296 296 296 296 296 297 297 297 297 297 296 296 296 296 295 295
302 301 301 302 304 303 304 303 302 304 303 305 306 308 308 307 305 307 307 307 306 305 304 304 306 306 307 306 306 305 306 306 306 305 305 305 305 304 304 303 303 303 303 302 302 301 301 301 300 300 300 299 299 298 298 298 297 297 296 296 296 296 296 296 296 296 295 295 295 294 294 294 294 294 294 294 294 294 294 295 295 294 294 294 294 294 294
302 304 304 304 303 304 304 304 305 306 305 305 305 306 306 305 305 305 304 304 305 304 303 304 304 305 306 305 304 304 305 304 305 305 305 305 304 303 304 302 303 302 302 302 301 302 301 301 301 300 300 299 299 299 299 299 298 297 297 297 296 296 296 296 296 296 295 295 295 294 294 294 294 293 293 293 294 294 293 293 293 293 294 294 294 294 294
Wind_Speed
7 5 8 7 6 12 4 8 5 3 8 10 8 6 12 3 4 7 11 13 15 15 15 15 13 11 11 10 10 10 8 9 9 9 10 10 11 10 11 11 11 12 12 11 11 12 12 12 11 10 10 10 9 11 12 9 6 6 6 5 5 4 4 5 3 2 4 6 6 7 12 17 11 10 9 7 7 7 6 11 12 11 10 10 10 11 9
5 7 8 6 7 3 5 5 5 5 3 4 7 11 9 5 10 16 15 10 12 14 15 13 13 10 11 10 9 10 9 11 9 9 10 10 11 11 11 11 11 11 12 12 11 11 11 12 11 10 8 6 7 8 8 9 8 5 4 7 6 4 4 4 4 4 4 4 4 8 11 10 10 14 13 10 10 8 8 8 8 8 8 8 8 11 10
5 4 4 4 7 5 4 6 1 0 6 6 5 6 3 5 15 13 17 17 13 10 13 13 9 9 9 10 10 9 9 10 9 9 10 10 11 10 11 11 11 11 12 12 12 11 11 11 10 8 6 7 6 6 5 7 8 9 8 8 7 7 8 6 4 5 6 5 3 5 8 7 7 7 12 19 17 8 6 7 6 5 8 9 9 7 10
7 8 7 9 7 5 7 9 6 7 7 8 3 7 3 2 11 13 17 14 12 10 13 12 11 10 10 11 9 8 6 7 11 13 10 8 10 10 11 11 11 11 12 12 12 12 12 11 10 9 8 7 7 6 5 5 7 9 10 10 11 10 9 8 7 7 5 5 5 5 6 8 6 5 6 8 12 19 18 10 4 5 6 7 6 7 8
7 10 6 9 10 8 10 11 10 7 7 8 5 6 5 4 18 16 13 10 10 13 12 13 11 11 10 9 9 8 8 8 10 8 11 11 9 10 10 11 11 11 11 11 11 11 10 10 10 10 10 9 9 9 8 8 8 10 11 11 11 10 10 10 9 9 10 9 8 8 8 5 4 4 2 2 4 6 11 16 19 14 6 4 5 6 7
5 12 8 4 3 8 7 5 11 10 11 9 9 6 6 4 11 7 11 12 14 14 13 13 13 12 8 9 9 8 5 5 6 8 6 9 9 9 9 10 10 10 10 9 9 10 9 10 11 10 10 9 8 8 7 6 9 9 11 11 10 10 8 8 8 9 10 10 9 8 4 4 3 2 3 3 2 5 2 4 6 10 15 10 6 4 6
7 9 5 5 8 7 3 5 6 7 11 10 9 6 10 6 10 15 15 16 15 14 11 12 14 14 12 10 11 9 7 6 8 4 6 7 7 7 8 9 9 9 10 10 10 10 10 10 10 9 9 10 8 8 8 9 9 9 11 11 10 9 8 7 8 9 9 9 9 9 7 5 4 3 1 2 2 0 3 5 4 5 5 6 8 10 9
6 7 6 4 6 5 2 5 8 8 7 7 11 12 9 6 8 15 15 14 14 13 14 12 11 11 11 9 8 9 2 3 5 5 7 5 8 7 7 8 9 9 9 9 8 8 8 9 10 9 9 9 10 10 10 9 8 9 10 9 10 9 9 9 8 7 8 8 8 8 7 6 4 3 1 1 1 1 2 1 2 3 5 4 4 7 6
7 8 9 7 6 6 5 3 4 4 4 5 5 6 6 5 7 11 14 14 13 12 14 14 12 13 11 8 5 5 7 4 2 5 6 5 6 7 6 8 10 8 8 8 7 6 7 9 10 10 9 9 9 10 10 10 10 10 10 10 9 9 10 11 10 9 7 6 7 7 7 6 6 4 3 3 3 1 3 4 4 4 4 4 3 4 4
7 8 8 10 6 8 8 7 6 5 1 3 2 7 9 9 10 10 13 15 14 14 14 14 15 14 10 9 8 11 16 10 1 4 6 4 5 6 6 7 8 9 8 8 8 8 7 8 9 7 8 8 9 9 10 11 11 10 11 10 9 9 9 10 9 8 7 6 5 6 6 7 8 5 3 1 3 3 3 4 2 2 3 5 5 5 6
6 8 7 7 8 3 3 10 8 3 3 5 6 4 8 8 11 13 11 12 11 12 13 13 14 11 9 7 6 5 5 6 6 4 4 6 5 5 6 8 8 9 7 7 8 8 9 10 8 7 6 8 9 9 9 10 10 10 10 9 10 10 10 9 8 7 7 6 5 6 5 5 6 7 7 4 3 3 4 4 5 5 4 5 6 6 7
7 6 7 8 5 3 6 10 8 7 7 8 3 6 8 12 9 11 12 13 10 7 4 12 7 5 6 10 6 4 6 8 5 2 3 3 4 5 6 9 8 6 6 7 8 9 9 10 10 9 10 9 8 8 7 8 8 9 8 8 8 8 9 8 7 6 6 7 7 5 3 3 3 4 5 5 7 7 6 5 3 5 7 7 8 8 8
8 8 6 7 5 4 10 10 8 7 6 5 6 6 4 15 12 9 9 10 9 6 7 7 5 9 10 8 6 7 9 3 3 3 2 3 4 5 7 8 7 6 7 8 8 9 8 8 9 10 10 9 9 8 7 6 7 7 7 6 6 7 7 8 9 8 7 7 8 8 3 2 2 3 3 4 5 6 7 5 5 5 6 7 8 8 8
8 7 8 5 5 4 7 7 8 8 6 6 4 6 4 8 10 3 5 5 11 12 10 7 8 7 9 9 5 5 6 4 4 1 3 3 4 5 6 5 6 7 7 8 9 10 10 9 10 9 9 8 7 7 7 7 8 7 6 6 6 7 7 8 8 9 8 6 6 7 5 2 0 2 3 3 2 2 4 6 7 7 7 8 9 9 8
7 7 7 6 5 7 7 10 6 3 6 5 7 6 9 8 3 10 9 8 9 7 8 10 7 3 6 7 6 4 4 1 2 2 4 5 5 5 5 6 8 8 7 7 9 10 9 10 9 8 8 8 8 7 8 8 8 6 6 6 6 6 7 8 7 8 7 8 7 7 6 5 4 4 3 5 4 2 3 5 6 6 7 8 9 9 8
7 8 8 1 5 8 7 8 2 7 8 7 7 7 8 7 7 7 6 9 7 4 4 3 3 3 5 4 4 5 3 1 3 5 5 5 5 6 7 7 8 8 7 7 7 8 8 8 8 8 8 8 8 8 9 8 8 7 6 6 5 6 6 6 7 7 8 7 6 6 6 6 5 5 5 3 4 4 3 4 6 6 7 7 8 8 9
4 4 4 4 5 6 7 9 11 10 9 6 6 5 8 6 7 9 6 10 11 6 5 2 1 1 2 3 4 2 2 3 5 5 4 5 6 6 6 8 9 9 8 8 7 7 7 8 8 8 8 8 9 9 8 7 8 8 7 6 4 5 6 7 7 8 7 6 5 3 5 5 6 6 6 4 4 3 3 3 4 6 6 7 8 8 8
3 5 6 7 6 6 9 8 8 10 9 7 4 7 7 7 7 3 7 13 9 7 3 1 2 2 2 2 1 2 4 4 4 3 4 6 6 6 7 7 9 9 9 9 9 8 8 8 8 7 8 8 9 9 8 7 7 7 8 7 6 4 5 6 7 8 9 8 6 6 6 5 5 4 5 6 6 4 3 3 3 5 7 8 8 9 9
2 3 9 8 7 6 8 8 9 8 6 4 3 3 2 10 8 6 5 5 10 7 5 2 1 1 1 1 3 3 2 2 4 5 6 5 5 6 7 8 8 7 8 9 9 11 11 10 9 8 9 8 8 8 8 9 9 8 8 8 7 5 4 5 7 7 8 7 6 6 5 5 6 5 5 5 5 6 5 5 5 5 6 7 8 9 9
6 1 5 6 7 6 5 6 6 8 7 6 4 3 4 8 8 6 7 7 6 6 6 4 5 2 2 3 3 1 2 3 4 4 4 5 6 7 7 7 7 6 7 8 10 10 10 10 10 11 10 10 10 10 10 10 9 8 8 8 8 7 7 6 6 7 7 8 7 6 7 7 7 6 6 6 6 5 6 6 6 5 6 6 6 7 8
6 4 7 4 3 4 5 7 9 7 10 9 9 7 8 8 6 7 6 1 4 5 5 6 2 2 3 2 2 2 3 3 3 3 5 6 6 6 7 7 7 7 6 8 9 10 10 10 11 11 12 12 11 10 9 9 8 8 8 9 9 8 6 5 5 5 6 6 7 7 7 7 6 6 7 7 6 6 7 6 6 7 7 7 6 6 5
6 2 2 8 7 6 7 7 5 8 11 13 12 11 9 9 6 6 5 4 1 3 5 3 3 3 4 4 2 2 2 3 4 4 5 6 6 7 7 6 7 8 8 7 8 9 10 10 11 11 12 11 11 11 10 8 8 8 8 8 8 7 5 4 6 5 5 6 6 6 8 8 8 7 7 6 6 7 7 8 11 11 4 5 8 6 5
3 7 9 8 7 3 2 2 4 3 6 7 10 7 6 5 6 5 4 5 9 2 2 3 6 7 2 3 1 2 3 2 3 5 5 5 6 7 7 8 8 7 7 9 9 9 10 10 11 13 13 12 11 10 9 9 9 8 8 8 7 7 6 6 4 4 5 5 6 6 7 7 7 8 7 7 9 12 12 12 10 12 12 13 15 12 6
4 3 5 6 4 2 6 3 2 3 5 3 6 10 7 6 7 8 6 5 4 6 8 10 4 4 6 5 5 6 3 2 3 4 3 6 6 6 7 7 7 8 9 9 9 10 9 10 11 12 13 13 11 12 9 9 9 8 8 8 9 8 6 5 6 5 5 5 6 6 6 7 8 6 7 8 8 8 11 12 10 10 12 14 15 14 12
3 1 1 1 7 3 3 2 4 4 3 7 6 7 8 8 7 9 14 12 7 5 3 3 8 12 9 2 3 1 2 3 5 4 5 5 5 6 6 6 7 8 7 7 8 8 8 9 11 12 11 10 12 13 12 11 10 10 9 9 8 6 6 6 6 6 6 6 6 6 7 7 8 6 7 8 9 10 8 8 12 13 12 13 14 15 14
6 4 3 2 5 5 4 4 4 6 7 5 5 6 8 8 8 5 6 2 6 6 3 5 4 10 4 3 2 4 4 4 3 4 4 5 5 5 6 6 7 7 8 8 8 9 10 10 10 11 11 11 12 12 11 11 11 10 9 8 8 5 5 6 6 5 6 6 6 5 5 6 7 8 7 8 9 10 11 11 9 7 7 11 14 12 11
6 7 5 4 6 5 3 6 6 8 9 10 8 8 7 11 10 8 7 6 6 8 7 8 5 1 3 1 3 4 5 4 3 4 3 4 5 4 4 6 7 7 8 8 8 9 10 9 9 10 11 10 10 11 11 11 10 9 8 8 7 8 9 7 5 6 6 6 7 6 6 6 7 7 8 8 9 10 10 11 11 10 8 6 5 7 4
4 6 7 8 5 5 4 8 9 5 7 6 6 7 8 8 8 8 7 4 5 1 3 1 1 2 3 2 4 5 5 6 4 2 2 3 4 4 5 6 6 7 7 8 8 8 9 9 9 9 10 10 10 11 11 11 10 9 9 7 7 7 7 7 7 6 7 6 6 6 6 6 7 8 9 9 9 10 10 10 11 10 8 7 5 5 8
5 6 7 7 5 10 10 10 11 9 7 8 8 7 7 7 8 7 6 5 7 7 4 3 4 5 4 3 4 5 4 4 4 3 2 3 3 4 5 5 6 7 6 7 8 8 8 9 9 9 9 9 10 11 11 11 10 9 9 8 8 7 7 7 7 7 7 7 6 7 7 8 8 8 8 9 9 10 10 10 9 8 8 8 7 6 4
6 8 9 7 7 7 8 8 9 8 8 10 10 9 8 9 8 7 7 10 9 8 7 7 6 6 6 5 5 4 4 4 3 2 3 3 3 3 4 5 6 6 6 6 7 8 8 9 9 9 8 9 10 10 11 10 10 10 11 10 9 8 8 8 8 8 8 7 8 9 8 8 7 7 8 8 9 9 10 10 9 8 8 7 7 7 6
7 5 5 5 6 7 8 8 8 8 9 10 10 10 11 11 11 9 9 8 7 7 7 6 6 5 5 5 5 4 3 4 3 3 3 3 3 3 3 4 5 5 6 7 7 8 8 8 8 8 8 9 10 10 11 10 9 10 9 8 8 11 12 12 10 9 8 9 9 9 9 9 8 8 8 9 9 9 9 9 9 9 8 7 7 7 7
6 5 5 5 6 7 8 6 7 8 10 10 11 13 12 12 12 11 10 10 8 7 7 7 6 6 4 5 5 4 4 4 3 3 3 3 2 2 3 3 4 5 6 6 6 7 7 7 8 8 8 9 9 9 10 10 9 9 8 9 8 8 9 13 10 9 9 10 10 10 10 10 9 8 8 8 9 9 9 9 10 9 9 9 8 7 4
10 6 6 6 7 7 7 7 7 9 9 11 11 11 10 10 9 8 8 7 7 7 6 7 6 6 6 5 4 5 5 4 4 4 3 3 3 3 4 4 4 4 5 5 6 6 6 6 7 8 9 9 9 10 10 10 10 9 9 8 8 8 10 9 9 9 9 9 9 10 9 9 8 8 8 8 9 9 9 9 9 9 9 9 8 8 4
6 10 12 14 4 6 8 7 7 8 8 7 9 9 10 11 10 9 8 7 9 9 8 7 7 6 6 5 5 5 4 4 4 4 3 2 3 4 4 5 4 5 5 5 6 5 5 5 5 6 7 9 10 9 9 10 9 8 8 8 9 9 9 9 9 9 9 9 9 10 10 10 9 8 8 8 9 9 10 10 9 9 9 9 9 8 4
6 5 6 11 16 14 12 7 6 7 6 9 11 9 8 6 7 10 8 6 10 8 7 7 7 6 6 6 6 6 5 5 4 3 3 3 3 3 4 5 5 5 6 5 4 4 5 5 5 7 9 10 10 9 9 9 9 8 8 8 10 9 9 9 9 9 9 10 9 9 9 9 9 9 9 9 9 10 10 9 9 9 9 10 9 7 5
8 8 6 5 5 2 3 9 8 4 4 7 8 4 2 3 3 12 10 12 11 9 8 8 8 8 7 7 6 5 5 4 3 2 2 2 3 3 4 6 5 6 6 6 3 4 5 5 7 11 8 8 9 9 8 8 9 9 10 10 10 10 9 9 9 9 9 9 10 10 9 11 11 10 9 9 9 9 10 9 9 9 9 9 8 7 8
6 6 7 8 8 9 8 5 4 3 4 3 3 3 5 8 11 10 12 12 10 8 7 8 8 9 9 7 6 5 4 2 1 2 2 2 2 3 4 5 5 5 5 5 4 5 5 6 9 13 9 8 8 8 8 12 9 9 9 8 9 9 9 9 9 9 10 9 9 9 10 10 9 9 9 9 8 8 8 8 9 9 8 8 8 7 7
7 7 7 7 6 7 6 5 6 7 7 7 6 6 6 5 5 5 9 11 11 10 10 9 9 8 7 6 6 6 5 4 3 2 1 2 2 4 5 5 5 5 4 4 5 6 6 8 12 9 8 7 7 8 9 12 13 9 9 10 10 10 10 10 9 9 9 9 9 8 9 9 9 9 10 9 8 8 8 8 8 8 9 8 8 8 8
9 8 6 7 8 7 6 4 5 7 10 13 10 7 6 7 7 6 7 12 11 11 10 9 10 9 8 8 7 5 5 5 3 3 2 2 2 3 4 5 3 4 2 3 5 5 6 7 8 8 7 7 8 9 10 12 15 10 10 10 10 10 10 9 9 9 9 9 8 9 9 9 9 9 9 8 8 8 8 9 8 8 8 8 8 7 7
9 8 8 7 7 7 7 7 4 2 4 8 8 7 6 7 6 4 9 13 9 10 10 11 10 9 9 8 6 6 5 4 3 3 3 2 2 3 4 3 4 3 5 4 4 5 7 11 9 6 5 6 6 6 8 12 14 11 10 10 10 9 9 9 9 8 9 9 10 11 9 9 8 8 8 8 8 8 8 7 8 7 7 7 7 6 5
9 8 7 7 6 6 6 7 7 6 6 6 7 9 8 8 6 5 5 10 10 10 11 11 10 10 10 9 8 6 5 4 3 4 2 2 2 2 4 2 4 3 6 4 4 5 6 8 6 6 5 6 6 9 9 12 11 10 10 9 9 9 9 8 9 9 8 8 9 9 9 9 9 9 8 8 8 8 8 8 8 7 7 7 6 6 5
9 9 9 8 7 7 7 4 6 7 7 6 6 7 7 5 5 6 6 9 9 10 9 10 12 10 9 8 8 7 6 5 4 3 1 2 2 3 4 1 3 3 6 5 6 7 6 4 6 5 6 7 7 12 15 12 9 9 8 8 8 9 8 9 8 7 7 7 7 8 9 9 9 9 8 8 7 7 8 8 8 7 7 7 7 6 6
9 9 9 8 8 7 7 6 7 7 7 5 3 5 4 5 4 6 5 7 10 11 10 10 10 10 9 8 7 6 5 5 5 4 4 4 4 4 3 2 2 3 5 3 4 6 6 5 4 4 6 7 8 14 15 10 8 7 7 7 8 8 9 9 9 8 8 7 7 7 8 9 8 8 8 8 7 7 8 8 8 7 7 7 6 6 5
9 9 8 8 8 9 9 9 7 7 9 5 1 1 2 2 2 3 3 4 8 5 8 9 10 9 9 8 8 5 5 4 4 4 3 3 4 4 4 1 3 4 8 3 4 6 5 5 5 6 7 10 12 14 10 8 7 7 7 8 8 8 8 8 9 9 9 9 9 8 8 8 8 8 8 8 7 7 7 7 7 7 7 6 6 5 5
11 8 8 7 7 7 7 7 9 9 8 5 3 4 4 5 4 3 3 2 4 4 4 9 9 8 7 6 6 5 4 4 4 3 4 4 3 5 6 4 2 2 3 4 4 5 4 5 6 8 8 11 12 14 8 6 7 7 7 8 8 8 8 8 9 8 9 9 9 9 8 8 8 8 8 8 8 7 7 6 5 6 6 6 6 5 5
12 10 9 9 9 7 6 6 5 7 12 10 6 5 3 4 6 6 5 1 4 7 7 6 6 6 6 7 6 5 5 4 5 5 4 3 2 2 1 2 2 3 3 5 5 4 4 8 7 6 8 10 13 9 6 6 7 7 7 7 8 8 8 8 8 8 8 8 9 9 9 9 8 7 7 6 6 7 7 7 6 5 5 5 6 5 5
9 7 9 8 7 7 7 6 5 5 9 11 8 5 3 5 7 7 8 8 4 6 9 9 9 8 6 6 6 6 6 5 4 4 3 3 5 4 2 2 1 5 1 4 5 3 4 4 4 5 6 10 11 7 7 7 7 7 7 7 8 8 8 8 8 8 8 8 8 8 9 9 7 6 7 6 6 6 5 5 5 5 5 6 5 6 5
9 8 7 7 8 8 7 7 5 2 1 7 10 2 7 5 7 8 8 7 6 6 6 6 6 8 7 6 5 5 3 3 4 4 3 3 3 4 3 2 4 3 1 6 4 8 6 4 3 3 7 9 7 6 6 7 7 7 7 7 7 7 7 7 7 8 8 8 8 7 6 6 6 6 6 5 5 5 6 5 4 5 5 5 5 4 5
8 9 10 10 7 7 7 6 5 7 4 4 3 5 2 9 7 8 6 6 6 6 7 9 8 7 7 6 6 5 4 2 1 1 2 1 2 2 6 7 6 4 2 4 3 2 8 7 5 1 7 8 6 6 6 7 7 7 7 7 7 7 7 6 7 7 7 7 7 7 7 7 6 6 6 6 6 5 5 4 4 4 5 5 5 5 5
8 8 5 6 7 5 5 6 7 6 3 1 2 2 4 4 7 6 6 5 4 6 7 7 7 6 6 6 4 4 5 3 2 2 2 2 1 2 2 2 1 1 2 4 4 4 4 5 4 4 5 6 6 5 6 6 7 6 6 7 7 6 7 7 6 7 6 6 6 6 6 6 6 7 6 5 5 6 6 5 5 6 8 6 5 5 5
9 9 8 7 4 3 2 2 5 3 4 3 1 1 2 4 7 6 5 4 2 5 6 6 6 6 5 5 4 3 4 3 2 2 1 2 3 2 3 1 2 3 3 3 4 4 4 3 4 4 4 5 5 5 5 5 5 5 5 6 6 6 6 6 6 6 6 6 4 5 6 6 6 6 6 6 6 6 6 7 6 6 6 6 6 5 5
7 6 4 5 8 9 6 4 4 5 5 5 3 3 4 4 5 7 7 9 6 3 5 4 3 5 4 5 5 4 4 3 3 4 2 1 2 2 6 4 1 2 3 3 4 4 4 3 3 4 3 4 4 4 5 6 5 5 4 5 5 5 6 6 6 6 6 6 6 5 6 6 5 5 6 6 5 6 6 5 5 6 6 6 6 6 6
Wind_Direction
212 290 359 329 332 348 291 148 47 197 226 251 259 260 273 326 28 129 157 154 145 147 147 139 134 135 128 136 126 112 96 84 88 89 85 77 75 73 71 64 57 51 53 50 50 46 49 49 45 37 34 23 13 9 344 4 26 25 29 44 62 60 65 79 87 63 11 359 6 319 306 305 284 245 241 226 215 223 202 196 207 214 221 221 188 192 200
164 229 241 237 273 41 351 67 171 331 16 246 253 260 258 329 103 137 152 135 134 136 132 137 138 136 126 103 110 106 94 90 92 86 79 78 73 68 62 59 57 53 47 49 50 55 50 47 46 44 47 48 38 34 356 340 4 17 23 42 44 50 60 48 19 38 41 57 2 303 293 305 338 338 309 269 238 222 226 213 201 200 210 225 218 183 188
305 260 223 292 265 290 293 248 288 226 265 288 264 263 264 153 126 144 136 139 131 123 129 116 111 107 114 139 140 118 134 129 98 84 75 65 69 65 61 56 53 54 49 41 42 47 58 53 47 53 48 63 64 65 14 344 7 19 30 51 33 25 33 47 29 28 42 23 15 273 290 314 348 348 345 328 306 287 238 222 223 192 197 208 226 223 188
269 245 205 219 251 267 273 272 238 218 226 239 230 241 215 152 135 141 144 144 133 145 139 125 124 133 157 129 115 127 119 115 123 113 84 63 56 58 61 53 46 45 47 40 35 37 41 55 49 32 32 35 40 45 64 34 27 30 35 43 37 31 23 16 11 16 28 18 10 339 331 340 347 7 334 322 330 328 320 296 236 229 212 206 212 233 232
252 259 196 236 231 234 244 239 244 225 243 246 241 243 211 147 142 155 163 147 135 142 141 142 148 148 144 142 112 81 61 48 42 49 91 82 60 50 55 58 46 42 41 37 30 32 31 41 46 41 33 32 27 22 23 24 34 36 36 39 42 39 27 16 11 5 8 14 12 26 17 344 322 326 332 238 310 347 345 343 339 320 279 226 213 218 238
270 267 217 183 226 235 246 241 225 215 228 207 235 198 98 54 150 140 143 134 144 150 156 153 157 146 106 118 102 87 80 88 85 74 61 63 63 60 51 52 52 42 37 34 26 21 29 33 40 39 30 27 29 28 18 16 43 37 35 38 38 37 33 28 25 17 13 11 7 16 20 3 355 347 317 314 158 141 133 10 321 323 320 313 287 240 225
258 280 140 227 229 234 17 38 345 192 208 214 229 111 104 71 118 125 134 147 158 156 164 164 144 117 123 128 133 134 135 132 111 127 97 87 75 60 62 61 55 46 35 26 19 14 24 27 35 30 32 20 23 22 23 29 30 41 34 31 31 26 27 30 28 24 18 14 9 9 17 13 12 99 169 278 308 121 148 164 201 272 315 344 339 337 340
258 260 226 236 226 63 44 62 45 19 53 61 104 100 92 101 126 141 140 149 154 160 160 145 118 118 124 114 135 127 125 286 136 118 98 65 70 60 42 61 64 46 33 21 13 7 11 25 24 22 28 19 19 20 16 26 31 40 39 32 29 20 17 24 31 30 21 15 9 9 7 5 17 67 56 6 288 104 86 64 350 311 294 314 326 313 319
245 240 233 221 71 203 128 142 139 146 116 132 154 138 115 119 135 144 149 156 155 146 132 131 141 139 142 142 126 148 141 326 75 104 82 53 59 60 49 43 57 46 32 6 6 356 16 32 23 10 17 18 19 17 11 12 21 31 32 29 22 20 16 18 19 19 25 20 12 4 358 1 6 5 358 1 331 269 167 161 176 199 228 245 240 251 266
216 243 241 227 206 254 202 173 145 214 181 239 109 152 141 161 151 144 151 150 154 148 154 155 151 153 143 148 169 178 137 146 11 66 84 74 65 50 41 48 46 35 26 3 2 5 12 37 20 353 10 19 16 17 11 6 15 21 24 21 14 14 11 12 12 7 3 20 23 13 358 7 357 343 329 273 288 309 336 342 292 260 251 245 233 231 227
205 229 253 226 236 219 352 148 145 182 125 62 89 214 187 161 162 168 168 160 169 179 161 141 160 158 144 152 148 145 113 103 121 77 42 24 39 37 34 43 28 21 17 5 1 1 8 24 357 342 17 28 19 14 11 3 7 15 16 14 12 6 3 357 2 2 0 23 17 16 13 20 356 347 349 335 322 350 352 351 343 317 288 283 268 254 252
250 236 220 233 235 133 133 117 121 111 110 103 177 216 211 161 188 167 178 191 203 173 180 132 120 174 188 150 137 166 137 132 101 113 74 22 18 9 27 41 13 14 5 7 13 354 13 17 342 1 12 12 9 8 5 358 3 9 9 10 4 3 354 348 353 354 6 6 351 345 50 33 16 341 337 348 348 346 339 322 314 296 301 293 291 279 265
237 245 241 239 106 116 130 137 128 122 122 151 211 208 99 155 166 156 180 167 174 215 175 89 116 65 77 95 123 152 94 278 95 77 117 73 28 19 25 28 353 16 6 16 359 351 18 358 356 1 2 356 354 349 350 345 4 360 6 2 359 0 354 348 351 354 358 358 344 342 40 55 27 334 333 334 334 343 332 327 320 303 280 266 265 274 267
241 222 240 227 79 105 128 130 140 119 160 189 190 90 161 164 122 144 190 93 82 98 103 99 75 126 120 109 124 98 110 115 144 227 55 34 19 24 22 3 32 23 10 5 357 3 1 355 4 358 354 348 339 344 338 341 349 349 360 355 355 355 351 348 351 348 347 342 338 341 347 7 74 296 281 279 256 248 283 305 314 308 299 284 269 258 265
240 249 247 221 199 143 188 128 135 72 274 76 95 95 74 91 134 165 129 93 98 68 87 75 81 94 90 90 88 75 89 103 84 72 61 46 33 26 3 21 29 22 11 2 1 353 350 354 354 350 345 341 340 334 332 334 335 335 349 341 350 350 349 347 350 338 335 338 344 336 332 327 343 335 316 301 292 263 283 296 293 292 292 293 282 268 256
236 218 230 30 41 143 140 163 196 98 82 118 115 121 119 109 104 64 98 103 79 54 100 119 110 88 111 131 125 118 119 95 72 69 55 41 27 21 11 13 15 7 2 358 352 345 344 346 342 341 339 341 335 335 328 339 326 329 324 331 334 347 346 342 336 331 333 336 328 318 323 346 347 322 310 301 287 283 285 286 292 287 279 279 276 273 268
324 21 69 179 194 121 102 81 97 108 119 113 81 76 103 129 124 133 132 110 106 87 68 67 67 221 147 92 93 106 71 54 51 35 31 27 23 12 11 2 5 359 348 341 341 340 343 340 339 339 338 333 331 322 330 324 324 314 312 308 322 335 340 332 329 331 324 313 298 335 349 328 309 297 297 290 274 271 271 264 274 272 280 293 289 282 272
71 170 87 99 133 139 114 118 104 113 114 112 138 140 171 136 116 145 125 118 120 129 117 250 183 220 60 72 86 70 59 36 38 37 28 23 15 6 5 8 5 349 338 337 336 333 333 336 335 331 327 323 319 323 320 315 312 309 303 305 302 316 322 331 333 328 320 321 331 357 315 298 301 321 337 333 323 307 278 279 288 330 334 327 321 318 322
143 188 162 171 153 135 142 130 138 112 124 110 123 94 89 95 114 89 74 128 125 126 133 194 265 173 164 176 88 52 23 13 17 18 15 7 10 1 5 2 354 349 340 330 334 336 336 337 332 329 328 324 317 320 319 324 320 319 323 318 317 310 319 331 331 319 316 320 331 318 304 330 332 328 315 310 314 324 347 352 359 347 329 329 324 324 318
219 131 151 163 162 161 141 171 151 157 120 107 83 106 97 117 101 118 109 108 139 136 162 164 209 192 71 49 61 342 84 29 21 359 353 359 357 4 355 346 348 338 332 338 334 334 329 331 332 332 326 322 318 318 320 315 315 315 308 306 304 306 312 328 322 321 316 321 330 332 339 332 318 315 319 321 322 334 337 330 327 324 323 318 315 312 315
206 148 127 116 113 177 192 195 193 150 152 148 129 102 99 99 115 109 125 205 146 183 175 149 77 104 96 127 76 17 358 351 336 353 348 349 353 346 339 338 332 320 334 333 336 331 328 331 331 330 327 322 321 314 309 312 313 310 308 304 296 290 306 324 325 306 307 333 341 334 323 318 321 331 325 323 323 309 304 315 318 315 311 299 289 282 289
208 308 261 169 192 206 196 225 225 191 167 147 152 161 173 172 160 148 150 151 50 138 117 117 153 206 176 167 123 331 342 321 307 328 344 342 338 330 325 322 335 335 335 337 332 331 333 335 329 325 320 314 312 312 310 308 310 306 302 294 293 295 296 304 304 314 343 344 330 329 324 322 317 312 320 304 276 282 289 286 290 289 258 261 277 293 294
346 314 349 360 344 332 68 202 223 187 118 165 149 139 150 168 175 160 195 181 159 143 96 180 194 182 165 256 185 240 240 279 320 341 340 321 329 322 336 334 329 329 332 338 345 340 343 337 334 333 327 319 310 308 306 305 304 303 302 302 305 304 301 295 322 5 359 337 336 329 319 310 311 312 306 305 280 255 247 261 271 284 282 258 261 265 241
212 52 3 4 335 48 331 304 191 216 146 144 171 145 153 174 177 180 187 199 215 174 212 176 183 315 263 222 176 211 224 289 286 283 292 316 320 327 318 320 323 327 336 339 341 342 343 342 334 329 324 324 323 315 312 316 316 314 314 314 307 300 312 327 0 357 347 332 321 316 311 306 302 300 306 309 306 291 269 257 266 264 264 270 268 268 254
288 49 57 341 292 328 210 147 231 177 198 184 182 172 178 194 206 210 170 159 180 163 218 235 209 200 213 178 261 298 285 263 271 303 331 315 303 304 310 316 329 342 342 346 346 342 342 343 335 329 323 338 347 342 339 330 323 316 316 315 315 331 336 324 323 333 327 318 309 307 304 304 303 313 315 315 312 313 307 269 254 257 265 267 269 265 265
260 223 203 283 296 257 289 272 196 189 164 171 180 196 178 190 189 252 316 153 217 200 253 14 287 81 85 80 335 296 273 258 311 331 290 293 307 316 326 337 344 336 330 334 334 334 337 343 342 334 328 354 357 351 353 4 359 356 350 347 342 343 328 317 322 315 309 293 291 301 321 329 328 324 320 318 313 312 310 312 306 295 262 252 258 269 268
266 257 217 223 246 257 310 286 248 193 172 169 189 195 196 127 146 174 215 268 241 161 190 195 214 334 45 96 235 254 265 298 278 251 297 307 305 316 323 332 334 336 340 339 333 333 335 346 346 336 333 358 353 349 350 355 353 352 354 348 342 327 323 323 317 316 315 317 319 333 332 325 324 319 313 313 309 303 299 299 301 300 305 293 248 193 246
268 278 262 239 226 270 235 250 265 219 210 208 199 204 210 151 155 175 207 248 335 1 155 148 232 178 215 220 238 237 253 235 235 284 287 312 314 309 326 336 338 334 326 327 330 334 338 339 341 339 336 349 349 349 346 345 344 340 342 341 337 326 327 330 325 320 316 323 335 327 321 319 315 306 301 297 293 291 288 285 284 290 298 301 314 294 243
252 261 249 249 205 206 207 213 235 231 216 200 195 201 206 156 169 176 181 217 232 217 141 165 194 217 218 186 212 239 236 269 302 282 317 320 316 336 330 334 334 327 334 339 341 341 343 338 336 337 337 351 351 350 346 342 337 332 329 330 326 323 319 318 318 318 319 317 305 304 303 300 292 287 285 286 287 286 285 283 287 297 299 301 293 289 280
235 226 237 235 239 245 243 236 226 217 206 195 193 192 211 173 169 184 194 200 203 198 189 194 199 202 192 205 216 225 247 261 250 274 299 290 313 341 335 332 323 331 330 335 340 345 341 336 333 330 338 347 347 345 341 337 331 332 328 326 321 319 320 322 317 314 306 302 303 306 298 288 284 282 288 291 291 292 291 290 288 286 286 294 303 303 311
229 227 249 253 249 249 246 241 233 228 219 211 207 209 211 205 193 193 203 207 195 202 200 187 179 193 198 218 222 241 254 243 262 286 278 292 308 317 325 339 334 332 335 332 335 332 332 334 332 332 342 344 347 341 335 330 326 325 324 324 323 327 334 351 344 330 319 312 308 307 302 298 294 293 294 294 292 289 287 293 298 301 303 305 304 306 310
303 281 250 244 256 254 251 244 244 231 220 211 206 209 214 214 215 210 204 208 205 200 190 186 184 188 204 219 232 227 232 242 258 262 274 274 290 312 330 338 334 331 325 328 326 331 332 336 333 340 340 341 341 335 328 325 324 323 323 326 325 324 328 337 327 331 328 319 312 303 294 289 289 292 294 294 293 295 298 301 300 303 304 306 305 307 12
309 278 271 269 258 260 249 256 245 233 224 226 221 216 211 213 223 218 213 215 214 196 197 192 180 194 199 212 215 221 228 245 255 263 270 292 305 312 319 327 327 330 327 330 328 324 325 336 340 340 345 342 336 330 328 327 329 327 327 328 324 321 317 317 316 316 309 304 301 299 303 301 303 301 299 300 295 291 289 291 295 299 305 310 311 313 67
348 339 324 307 296 252 279 264 236 241 238 230 230 219 217 216 208 205 208 216 218 212 202 191 184 190 199 199 207 216 237 243 244 251 272 299 334 331 326 316 310 313 317 325 327 319 334 343 350 2 349 339 330 325 326 328 328 326 326 323 320 318 311 312 311 308 305 302 301 303 304 303 304 303 301 298 297 298 299 299 297 298 298 297 297 301 127
347 349 352 343 330 345 347 342 333 315 271 225 212 214 205 156 218 222 217 215 222 195 180 179 181 187 194 198 210 220 231 234 247 271 292 300 313 331 316 308 319 318 314 320 325 331 335 336 353 353 344 333 322 319 325 327 327 325 328 325 318 314 314 311 308 302 304 304 303 297 294 295 298 304 303 302 298 295 294 294 293 291 290 289 289 300 315
349 347 341 323 311 331 314 327 318 327 8 350 291 187 195 78 349 292 221 198 221 198 179 182 184 191 194 194 206 217 224 235 250 275 305 329 351 343 334 322 316 308 314 308 348 12 356 342 346 350 342 327 319 321 327 327 330 336 334 326 318 314 312 311 310 308 304 303 302 301 302 304 305 302 298 295 291 290 290 290 289 287 288 290 297 309 317
335 330 330 330 331 331 326 292 259 270 281 266 284 279 210 189 197 219 254 225 206 195 186 190 186 189 195 194 204 204 202 193 282 275 268 330 329 312 311 309 305 309 313 303 347 342 325 321 332 331 327 316 321 329 323 326 334 331 326 321 314 314 313 311 306 303 301 300 300 302 303 304 300 298 296 292 294 296 300 299 299 300 300 300 304 308 311
322 322 323 323 327 329 333 323 307 282 263 253 230 205 207 215 214 218 268 240 203 195 193 187 186 184 189 191 191 190 194 192 201 214 238 264 293 308 308 307 313 309 314 348 346 328 330 336 334 326 319 319 324 316 322 339 348 345 330 320 316 310 305 302 302 301 303 303 305 305 304 301 299 296 297 299 300 299 300 300 302 302 301 302 299 298 295
321 323 323 333 326 328 334 346 351 320 270 245 234 227 198 188 195 205 242 249 211 196 190 186 181 185 193 191 187 195 200 199 195 220 250 300 334 312 312 315 347 42 11 4 336 329 333 337 326 320 329 339 346 350 339 333 333 332 323 313 308 303 304 302 305 305 305 305 304 302 304 301 300 300 300 301 302 301 299 299 299 297 295 291 289 288 292
327 324 327 327 323 324 317 322 317 283 294 297 289 259 195 175 182 202 230 229 199 180 185 182 182 183 184 184 191 182 179 173 179 200 225 264 319 300 290 270 94 81 66 39 358 340 333 321 319 333 5 17 355 330 326 331 329 320 314 309 305 304 303 305 305 307 309 307 306 308 305 305 304 307 307 305 301 297 298 297 296 298 300 301 299 301 309
317 314 317 317 314 303 308 306 307 311 303 301 291 276 251 213 166 148 248 241 194 183 182 178 182 186 180 178 180 175 166 178 186 202 190 251 281 284 283 302 43 34 62 9 7 334 319 314 9 8 20 350 335 335 339 331 321 308 309 309 305 303 303 307 309 309 311 315 310 306 305 306 306 304 303 303 302 303 302 299 298 297 298 297 299 304 303
318 319 317 316 313 312 304 300 299 300 295 292 291 270 256 219 177 173 169 262 219 175 170 176 179 176 173 176 172 179 177 180 187 215 172 206 240 271 275 286 16 42 61 352 343 329 323 4 50 13 2 341 334 338 332 318 312 315 315 312 308 307 308 307 308 312 316 315 311 306 305 302 302 302 303 301 302 299 298 297 297 299 297 296 293 301 306
308 307 307 303 303 304 303 301 295 291 294 299 319 304 257 222 191 151 162 232 234 172 171 174 166 163 163 175 167 177 181 179 196 192 198 226 229 225 252 3 339 98 85 14 347 314 327 328 10 36 358 349 337 332 323 317 316 320 314 312 310 311 309 310 310 310 308 305 305 304 304 304 304 305 307 305 301 298 297 298 299 299 302 306 311 311 312
314 312 315 334 331 330 326 309 307 317 294 296 31 219 250 196 166 142 140 190 236 200 149 142 150 159 169 180 184 171 182 195 192 198 221 225 209 151 152 263 304 70 85 14 338 326 333 14 53 24 0 348 339 332 325 320 325 321 314 314 316 316 316 316 314 313 311 309 306 304 304 304 305 303 303 303 302 302 304 307 309 310 310 312 309 308 308
309 308 312 325 310 304 302 311 317 304 277 271 252 220 216 215 151 100 71 318 184 133 149 142 150 154 172 177 175 174 180 170 210 194 219 211 229 134 149 188 233 268 81 8 334 325 19 56 36 26 3 346 336 329 320 328 325 319 322 325 322 321 327 322 319 320 318 314 311 308 306 306 304 304 304 305 305 304 303 307 315 321 324 324 322 318 317
308 322 322 316 311 308 307 306 313 319 298 267 208 195 196 194 174 170 169 173 241 173 156 171 152 156 172 168 177 172 172 181 185 184 204 232 290 324 355 336 320 65 11 317 307 333 67 68 49 33 358 345 339 329 333 334 327 326 332 332 326 323 322 324 323 320 319 317 315 314 314 310 308 306 307 309 312 311 311 315 315 318 320 319 316 317 315
311 323 312 308 303 306 306 295 290 311 304 285 253 177 176 185 172 170 169 171 192 204 186 177 161 164 175 182 159 166 173 186 197 186 184 171 151 206 180 172 208 108 12 313 324 9 52 42 37 18 355 346 342 336 340 337 336 332 338 331 329 326 329 328 328 322 321 317 318 320 323 321 323 326 323 323 323 324 325 331 327 330 328 327 329 342 350
322 321 321 316 308 304 297 289 279 244 294 301 307 303 178 204 169 154 139 143 168 198 155 135 156 158 172 177 176 176 195 219 205 180 196 217 202 221 199 137 117 115 262 288 110 121 106 93 56 17 348 346 340 346 342 337 340 336 333 330 328 335 341 335 330 329 326 322 327 326 323 322 325 322 324 325 324 329 329 330 330 335 333 331 334 341 343
333 326 333 324 318 315 316 308 301 284 277 201 156 311 224 163 168 143 131 141 162 191 175 158 159 161 165 174 167 168 147 134 270 133 128 246 263 288 122 140 151 156 267 302 321 156 151 149 144 79 345 342 345 347 342 342 342 344 344 335 329 338 348 341 338 335 331 334 337 338 337 332 334 330 334 336 333 336 345 353 355 360 356 349 351 349 346
346 344 346 335 323 343 344 346 316 304 308 219 285 210 247 146 137 158 136 123 172 185 158 161 155 159 161 161 178 171 123 147 139 126 208 196 259 271 270 217 197 283 283 297 302 308 314 318 319 346 342 334 340 341 341 340 341 349 346 343 339 338 346 338 333 342 349 354 350 347 346 345 346 349 354 343 354 1 2 6 14 15 18 12 3 359 1
1 356 357 330 342 342 305 62 308 18 322 353 297 82 121 137 133 145 130 103 251 168 136 146 160 151 187 157 150 158 128 183 125 93 268 222 205 256 106 332 289 292 313 309 306 300 310 321 327 331 331 328 329 342 342 344 334 335 349 354 345 335 342 345 346 350 357 4 2 358 352 349 357 356 1 359 3 7 6 7 12 14 12 12 8 6 7
23 9 354 340 0 350 353 54 26 27 58 87 141 167 112 85 101 116 121 154 202 161 113 82 167 172 153 125 157 175 148 199 190 178 165 279 316 313 141 160 198 210 227 248 276 289 302 330 328 315 301 311 338 338 329 326 330 336 348 346 352 345 346 351 349 1 3 6 7 11 5 355 5 5 356 1 1 14 18 13 10 9 8 12 6 8 14